カタログに戻る

FENGYUN 1C DEB

運用中SSO
NORAD 36694·DEBRIS·🇨🇳 China

打ち上げ May 10, 1999 から Taiyuan Satellite Launch Center

Loading…

次のパス (今後24時間)

TLE

経年Source: Space-Track

元期: Sep 6, 2026, 23:48 UTC

1 36694U 99025DZQ 26249.99197133  .00000740  00000-0  34348-3 0  9994
2 36694  99.0475 304.3608 0101836 277.0059  81.9544 14.21199386674582

AllMySatでFENGYUN 1C DEBをリアルタイム追跡

Download on the App Store